sat.trackr.live / text

‹ back to catalog

O3B PFM

NORAD 39191 · 2013-031D

PAYLOAD ACTIVE UNKNOWN

§ Identity

Operator
Country
O3B
Launch date
2013-06-25
Launch site
FRGUI
Launch vehicle
Mass (kg)
RCS (m²)
45.13

Purposes: comms

External: N2YO · Heavens-Above · Gunter

§ Orbital elements

Epoch: 2026-09-09T23:49:15.297888Z

Period
287.93 min
Inclination
0.0621°
Eccentricity
0.0004853
Mean motion
5.00115974 rev/d
Perigee alt
8,058.9 km
Apogee alt
8,072.9 km
Semi-major
14,444.0 km
B*
0.0000e+0
RAAN
338.3927°
Arg perigee
167.8435°
Mean anomaly
213.7937°
Rev number
24,090

§ Raw data

O3B PFM1 39191U 13031D   26252.99253817 -.00000028  00000+0  00000+0 0  99912 39191   0.0621 338.3927 0004853 167.8435 213.7937  5.00115974240902

JSON: /api/v1/satellites/39191 · /tle

For live sub-satellite position, see the globe view (requires WebGL).

§ Visibility from observer

Set your observer location to see the next 7 days of passes ≥ 10°. The values pass through the URL so the page stays shareable.

No JS? Fill the form by hand. The geolocation button needs JavaScript.